Dewpoint
64 61 49 46 41 42 40 40 39 39 35 26 24 25 20 24 37 24 45 55 51 53 62 69 70 68 67 67 67 66 66 64 62 61 60 61 61 62 61 61 61 60 60 60 60 60 60 58 58
61 53 46 48 43 40 38 42 40 39 37 25 20 19 18 19 36 43 50 57 51 54 62 69 70 69 68 68 67 67 66 64 63 62 61 61 62 62 62 61 61 61 61 61 61 62 62 61 58
51 44 42 45 44 39 36 40 39 39 38 30 21 25 22 22 36 43 51 58 56 57 64 67 70 69 68 68 68 68 67 66 64 63 63 64 64 64 64 61 61 61 61 60 61 60 61 62 62
44 48 48 44 41 42 41 40 40 36 35 30 24 22 28 29 35 44 48 58 58 59 64 66 70 70 69 69 69 69 67 66 65 65 65 65 65 64 64 63 62 61 61 61 61 60 60 61 63
50 48 45 43 42 42 41 40 39 35 33 25 27 24 26 30 38 44 53 57 57 60 63 66 70 70 69 69 69 69 68 68 67 65 65 66 65 64 64 63 63 61 61 62 60 59 60 62 63
45 43 39 35 37 37 37 38 36 33 32 27 26 27 26 33 39 46 56 55 56 59 62 65 69 70 70 70 69 70 69 69 68 67 67 66 65 64 63 63 62 62 61 60 60 61 62 62 63
42 41 37 37 35 34 35 36 33 31 32 30 27 23 26 32 38 51 56 57 57 59 62 64 68 70 70 70 70 70 69 69 69 70 68 66 64 62 61 60 60 60 60 60 61 61 61 63 62
43 40 36 37 31 28 34 33 32 32 31 31 30 24 24 30 40 50 56 56 58 60 61 63 67 70 69 70 70 70 70 70 70 68 66 64 61 60 60 61 61 61 60 60 58 59 60 62 62
43 37 31 32 33 31 34 33 34 33 34 29 30 29 31 37 41 48 51 53 55 58 61 63 66 68 67 68 69 70 68 66 66 65 63 62 61 60 62 62 61 59 59 60 61 60 61 61 62
41 39 35 33 33 32 35 37 38 35 35 35 32 31 34 38 39 41 45 47 51 54 57 61 63 65 65 65 64 64 65 63 63 62 61 61 61 61 61 61 61 59 59 59 60 61 62 60 62
41 38 38 35 35 38 38 38 39 37 36 36 34 35 34 36 38 38 41 44 46 50 54 58 60 61 61 59 58 57 59 60 60 61 61 60 60 59 60 59 59 59 59 60 60 59 60 62 61
39 41 39 37 37 38 38 39 39 39 38 38 37 36 34 34 37 37 39 42 42 45 49 54 57 57 57 56 57 57 57 58 58 58 59 60 58 58 57 57 57 58 58 58 58 59 61 62 62
38 37 38 39 38 38 39 39 39 38 39 38 36 33 32 34 35 37 38 39 39 40 46 50 55 55 55 56 57 57 57 58 57 58 59 59 58 57 57 57 58 58 57 57 57 58 60 61 61
34 37 35 34 35 34 35 34 35 35 35 32 31 30 33 35 35 36 37 37 38 40 46 51 53 54 56 57 57 57 57 57 58 58 58 58 58 58 58 58 58 58 57 57 57 58 59 60 60
23 21 22 22 21 24 26 25 25 27 30 31 30 30 31 34 37 35 35 37 38 43 49 52 54 56 57 57 57 57 57 58 58 59 59 59 59 58 58 58 58 57 57 58 57 58 59 59 59
22 22 18 19 22 23 24 20 23 26 29 29 30 30 30 32 36 37 36 37 42 49 49 53 56 56 57 57 57 57 57 58 59 59 59 60 60 59 58 58 57 57 57 57 57 57 58 58 58
22 15 13 14 14 20 23 19 22 27 28 27 28 29 29 30 35 37 38 41 49 50 52 54 56 56 57 56 57 57 58 58 59 60 60 60 60 60 59 57 57 57 58 58 57 56 57 57 57
16 11 18 12 17 20 20 23 24 25 27 28 29 29 30 31 31 34 40 47 51 52 53 54 55 56 56 56 56 58 58 58 59 59 60 60 60 60 58 57 57 58 58 57 57 56 57 57 57
14 14 14 14 23 23 24 24 25 26 27 26 26 27 28 30 35 38 44 49 51 53 53 54 54 55 56 56 56 57 57 58 58 59 59 60 60 59 58 57 58 58 57 57 56 56 57 58 58
20 18 19 20 25 24 23 24 25 26 26 27 27 27 29 33 40 44 46 50 51 53 53 54 55 55 55 57 57 58 58 58 59 59 59 60 60 60 58 56 57 58 57 56 56 56 56 57 58
23 21 20 18 22 22 21 19 20 24 28 28 29 31 32 34 39 45 48 50 52 53 53 53 55 55 57 58 58 57 57 57 57 57 58 58 60 60 60 59 58 58 57 56 56 56 56 56 57
19 26 25 25 22 18 23 19 21 22 25 27 25 26 27 33 46 47 50 51 52 52 53 53 54 57 58 58 57 55 55 54 57 57 57 57 58 60 60 59 58 58 57 56 56 56 56 57 55
21 23 25 24 21 21 22 22 24 26 24 24 24 24 27 39 46 47 49 51 52 53 53 54 56 58 57 58 56 55 54 56 56 56 56 57 58 60 59 59 58 57 56 56 56 56 56 56 56
21 19 20 22 22 17 19 21 17 22 23 24 24 27 37 45 47 48 49 50 51 54 54 55 57 57 57 57 56 54 53 53 54 56 57 57 58 59 59 58 57 57 56 56 56 56 56 56 56
18 15 13 12 13 14 18 20 17 24 26 25 24 26 41 47 46 47 48 48 50 53 54 55 57 57 57 57 56 55 54 54 55 57 58 57 58 58 58 57 57 57 56 56 56 56 56 56 56
16 15 12 8 10 16 18 20 22 25 26 27 28 30 43 47 46 46 47 48 50 53 54 55 56 56 57 57 56 56 56 56 56 58 58 58 58 58 58 58 57 57 57 57 57 56 56 57 56
16 15 17 13 22 20 21 23 24 25 26 28 30 38 43 46 46 46 47 47 50 52 54 54 55 55 56 56 56 56 57 57 58 58 58 59 59 59 58 58 58 58 57 57 56 56 56 57 57
11 15 14 14 9 14 19 20 18 21 20 29 34 37 43 47 46 46 47 48 50 52 53 54 54 54 55 56 56 56 57 58 58 58 57 57 58 59 59 58 58 59 58 57 57 58 58 58 58
11 12 13 12 18 14 16 18 25 22 22 26 33 39 44 46 46 46 47 48 49 52 53 54 53 53 55 55 54 56 57 57 57 58 58 58 59 59 59 58 59 59 58 59 58 58 59 58 58
10 11 11 8 10 15 19 16 26 25 24 30 31 38 44 47 47 47 47 48 49 50 51 53 53 52 54 55 54 56 57 57 56 58 58 59 59 60 59 59 59 59 58 58 58 58 57 57 57
Wind_Speed
9 11 6 3 1 2 4 6 3 7 2 3 4 8 11 6 8 5 5 20 13 24 20 25 25 24 22 21 20 19 17 17 16 15 14 12 12 12 11 10 9 8 7 8 9 8 7 7 7
10 4 2 3 2 3 5 4 6 9 8 4 3 4 5 5 4 3 6 17 17 23 22 24 28 27 25 23 21 19 18 18 17 16 15 14 14 14 13 12 11 11 11 11 10 10 9 9 9
11 1 2 3 4 7 4 6 6 17 14 9 4 4 2 4 4 5 7 21 17 21 21 25 29 27 25 23 22 21 20 19 18 16 15 14 14 14 15 15 13 14 15 15 13 12 12 11 10
3 3 3 2 12 7 7 12 12 17 12 8 5 5 3 8 6 9 12 21 20 19 20 23 27 26 24 23 22 20 19 19 18 17 17 18 16 16 17 17 15 16 16 16 14 13 13 13 12
4 3 2 4 8 7 12 19 12 16 10 6 5 6 5 4 5 10 18 21 24 19 18 20 25 26 24 23 21 20 20 19 18 17 17 16 16 16 15 18 17 18 18 18 17 16 15 15 15
2 3 3 8 8 7 9 15 13 9 7 3 4 2 7 3 8 12 17 22 18 23 20 19 23 24 23 22 22 21 20 19 17 16 15 14 16 14 15 16 16 17 17 18 19 18 17 16 14
4 4 5 7 13 10 6 4 5 3 8 6 2 5 6 9 12 15 19 16 15 15 18 18 18 21 22 22 21 19 18 17 17 16 15 13 12 12 13 14 15 16 17 18 18 18 18 16 13
4 3 4 7 6 13 5 2 2 4 10 1 3 5 13 6 13 14 13 14 14 13 17 20 17 16 16 16 19 17 17 18 16 14 13 12 13 13 12 12 13 14 16 18 19 19 19 18 16
4 6 16 14 9 15 5 6 3 1 8 8 8 11 10 1 13 17 14 12 13 14 18 16 18 18 16 15 14 16 17 15 13 13 14 13 11 11 9 10 12 14 15 16 16 17 20 18 18
10 12 19 13 15 17 10 7 13 8 21 23 11 15 9 11 18 25 25 27 24 24 19 20 18 19 17 13 13 11 11 7 10 11 13 11 11 11 11 12 13 13 14 16 16 16 17 18 11
11 26 26 16 20 6 13 23 5 14 23 24 20 30 10 15 21 25 25 24 33 23 18 21 19 17 17 14 12 10 8 9 9 12 13 12 11 10 10 9 9 10 10 10 10 9 9 9 10
9 19 31 20 13 7 22 12 25 21 28 25 28 24 16 17 27 30 29 27 24 23 23 21 19 18 15 13 13 9 8 9 11 13 13 12 12 12 13 12 11 11 8 8 7 7 6 8 10
18 23 16 18 19 21 19 25 25 28 34 22 24 24 23 22 31 26 26 21 18 26 22 22 18 18 17 14 10 9 11 11 12 10 10 12 13 14 13 14 11 10 7 8 7 7 6 7 9
8 16 18 12 22 22 27 29 10 25 29 26 26 29 23 21 31 25 20 28 28 20 18 19 21 19 16 13 12 12 12 13 10 11 12 12 13 13 12 12 12 11 9 7 6 8 6 8 8
7 12 16 20 19 15 21 18 22 36 22 25 28 28 27 25 20 32 38 34 22 17 20 23 23 17 16 14 12 11 14 11 11 12 11 12 12 13 12 12 12 11 8 8 7 5 4 5 5
3 2 10 4 6 9 10 20 29 23 21 28 25 24 22 27 30 33 32 23 18 20 23 21 16 17 14 13 10 12 12 10 11 10 9 9 10 12 12 12 11 9 7 7 6 5 5 5 8
2 20 19 12 19 14 12 23 28 15 14 27 27 27 25 27 22 32 20 16 20 24 26 24 19 18 15 11 9 11 9 8 9 8 8 7 8 10 12 11 10 7 7 7 5 5 5 8 8
14 12 11 18 6 8 18 23 31 32 17 26 24 25 26 26 30 15 15 18 23 25 24 21 17 16 12 9 7 7 6 6 7 8 8 7 7 8 10 9 8 7 6 6 7 8 7 6 9
19 25 22 17 3 9 14 19 30 27 17 25 28 26 29 25 10 9 18 22 24 25 26 24 21 15 13 7 6 4 3 4 5 6 8 7 7 7 9 8 7 7 10 9 10 6 9 3 6
21 26 26 25 13 8 22 23 27 28 26 24 29 29 25 15 6 7 15 18 24 25 23 21 20 17 12 7 4 2 1 4 5 5 5 6 7 8 8 8 8 8 7 8 12 10 6 3 7
29 31 30 30 5 7 17 22 25 25 13 16 21 21 17 16 12 10 16 20 19 24 24 21 19 16 11 7 4 1 1 1 2 2 2 3 5 5 8 8 8 8 8 11 15 12 9 7 4
39 25 24 22 7 13 3 15 24 28 26 19 23 16 15 7 6 14 19 20 23 22 19 19 16 14 9 7 4 2 1 1 2 3 3 6 3 2 4 7 8 8 9 12 14 11 8 9 9
22 19 20 16 15 14 9 12 9 7 23 25 19 22 13 5 15 19 21 23 21 21 21 18 16 12 9 7 5 3 2 1 2 3 5 4 3 0 3 5 7 9 9 10 12 12 9 9 10
10 7 4 3 6 18 17 14 17 14 27 19 17 9 4 10 15 18 19 22 21 16 18 18 15 11 8 7 4 3 3 1 2 3 5 5 1 1 4 6 7 8 9 11 11 9 9 10 8
17 16 6 7 10 12 7 14 26 16 19 22 22 13 7 12 22 24 28 25 22 21 18 16 13 11 9 7 4 4 2 2 1 3 4 3 0 2 5 4 8 7 8 11 10 9 8 7 8
33 25 15 12 9 5 20 14 9 32 31 25 20 9 14 18 16 23 22 23 22 21 20 16 13 11 9 8 5 3 3 0 2 3 2 3 2 3 6 5 6 5 9 10 10 8 6 6 6
14 29 14 5 3 3 8 6 8 14 12 14 11 11 17 19 20 23 23 24 22 21 21 17 14 10 9 9 6 3 1 1 2 2 2 2 1 3 7 6 7 7 9 11 10 8 8 8 7
23 19 18 14 11 8 6 7 11 11 13 8 8 12 16 17 19 22 21 22 20 20 18 15 13 12 10 8 5 4 2 2 3 2 4 3 1 3 7 7 6 8 9 10 9 9 8 9 7
13 22 7 14 7 7 3 9 10 9 11 8 11 15 20 23 23 23 20 20 20 18 17 16 13 11 10 7 5 3 3 2 5 4 4 4 3 4 7 9 9 9 10 10 10 8 8 9 10
25 19 21 20 21 7 3 6 6 12 11 9 14 19 18 17 21 20 22 21 20 21 17 16 13 12 11 8 5 5 4 2 5 5 6 5 5 7 8 10 11 10 10 10 10 10 9 10 11
Wind_Direction
164 153 147 110 175 55 251 248 251 270 300 301 126 167 196 172 170 221 315 185 147 161 164 173 179 186 189 191 190 188 188 191 195 202 206 212 218 226 224 223 229 245 256 271 276 280 276 272 261
153 147 94 93 169 208 243 253 256 278 285 330 247 199 197 230 202 234 140 183 164 161 166 174 184 189 192 192 190 191 193 197 203 209 213 214 220 228 236 240 237 242 246 248 255 264 270 271 266
160 145 99 151 168 218 224 221 275 306 297 235 231 253 179 229 216 201 209 170 160 167 171 180 187 189 193 192 193 193 195 200 209 215 222 228 231 239 237 244 249 250 249 249 243 255 256 267 265
141 51 56 203 242 247 235 275 293 315 337 222 188 252 261 217 177 197 164 163 167 174 176 184 187 190 193 194 196 197 200 205 212 216 224 232 230 238 244 245 248 254 257 256 256 253 257 265 262
48 76 236 247 251 257 256 265 286 297 292 268 215 240 248 251 205 173 165 165 176 174 179 182 188 190 194 195 199 200 203 209 213 221 230 238 239 247 254 251 245 252 259 257 259 259 258 257 258
112 103 240 252 245 246 259 262 275 260 293 289 223 233 254 267 187 186 166 177 179 176 179 180 189 194 195 197 202 203 207 212 216 224 230 240 244 248 253 262 257 256 259 262 263 263 262 258 253
172 154 243 266 279 282 245 205 230 335 316 323 169 243 264 259 211 180 176 175 179 178 173 183 189 197 200 202 204 203 210 216 219 225 228 232 238 248 254 261 264 264 262 262 267 267 266 267 259
164 171 247 239 263 281 211 231 143 43 327 356 157 279 281 274 179 158 162 180 185 182 185 192 189 188 199 205 206 205 213 217 218 223 227 228 235 241 247 257 263 266 267 262 257 262 263 260 254
120 224 239 233 223 256 195 264 144 346 280 281 256 250 259 232 150 157 176 199 201 204 201 190 188 187 191 200 206 209 217 219 222 225 226 222 221 232 244 256 261 267 262 260 258 255 257 257 252
184 215 231 213 210 254 275 273 304 320 311 291 276 273 266 177 180 180 191 204 208 212 206 197 191 189 189 192 201 210 218 223 222 218 223 222 217 226 236 243 251 261 263 263 266 276 257 245 235
195 223 239 262 234 228 283 286 295 288 291 281 291 297 281 206 200 197 202 204 210 210 201 198 189 189 186 189 194 207 213 222 229 231 230 224 222 229 234 240 250 260 263 274 276 281 282 232 219
221 224 238 259 279 283 268 295 286 278 266 276 285 280 275 225 208 209 207 208 209 207 202 189 185 184 189 184 192 195 213 223 235 241 235 220 224 230 235 232 232 238 245 254 261 265 267 227 204
221 238 252 261 281 278 277 268 267 286 282 279 277 289 269 240 218 220 215 213 210 215 196 187 176 180 182 187 188 194 218 222 224 221 219 213 225 233 230 233 232 237 236 239 250 252 242 221 209
216 227 251 261 269 275 274 275 285 267 270 284 282 280 267 243 224 220 219 219 214 207 184 172 179 176 177 186 192 209 220 227 231 237 234 228 228 230 232 240 234 231 232 237 241 243 228 216 202
245 262 270 252 253 255 269 277 257 267 277 269 272 271 268 246 227 223 221 218 208 188 162 173 173 173 181 189 203 220 227 223 228 234 233 230 226 230 234 239 240 223 222 230 235 232 216 207 205
244 231 264 175 227 256 200 271 271 274 262 265 268 275 273 263 232 231 228 214 179 153 165 165 167 175 183 196 211 230 235 232 238 239 235 233 231 228 228 229 225 215 220 224 225 209 209 207 202
258 254 260 285 258 254 231 282 275 277 273 279 281 280 279 274 247 239 219 183 159 153 160 169 169 178 186 206 216 233 238 237 240 238 235 236 239 227 218 222 224 206 214 218 209 204 194 195 202
220 254 243 243 274 225 262 260 278 280 275 269 273 279 279 274 265 241 189 161 153 154 155 161 168 176 186 197 222 236 245 250 250 251 242 241 249 223 214 223 225 208 206 207 188 188 188 193 195
218 234 243 253 204 242 255 273 280 282 269 272 278 277 281 279 255 184 172 158 151 151 159 159 163 179 176 190 213 228 247 284 280 265 247 249 245 224 214 215 212 205 208 204 182 168 174 148 157
212 229 242 266 244 247 279 283 289 288 279 271 276 281 277 270 225 176 160 150 155 156 150 155 165 174 189 196 195 186 263 280 282 277 259 263 257 233 214 209 213 204 192 180 177 168 152 118 158
218 222 235 245 1 284 299 294 289 284 277 273 263 266 274 274 225 170 145 147 140 147 156 163 165 174 187 183 139 76 305 314 325 338 342 306 283 255 220 209 202 200 185 183 181 178 154 148 171
220 214 233 249 264 264 132 290 290 298 301 286 294 301 276 254 174 154 146 145 147 155 156 160 164 173 173 153 133 167 159 10 272 279 295 303 313 262 209 199 200 197 183 185 185 175 168 148 168
227 205 219 243 251 262 261 269 262 292 288 280 280 288 284 193 171 156 151 147 151 155 161 162 167 170 159 144 157 158 122 226 293 330 311 314 324 160 174 182 179 174 182 178 173 182 173 172 175
191 145 160 233 239 253 247 232 268 252 244 260 267 287 302 151 144 139 143 145 151 155 157 162 169 169 158 160 168 154 150 110 15 346 323 325 338 152 142 153 160 165 175 170 180 182 191 196 183
176 161 197 237 230 250 232 216 243 260 241 242 259 263 164 162 150 153 156 156 156 163 167 168 167 168 174 172 174 192 184 184 2 343 315 340 14 167 157 148 155 166 169 173 174 175 191 200 189
184 178 174 204 221 247 218 222 234 228 242 245 256 247 164 164 167 158 158 155 163 168 169 168 168 176 178 182 193 188 217 357 332 319 333 41 99 149 159 145 144 139 142 153 157 166 165 163 161
188 209 177 194 209 215 234 256 261 234 225 227 221 176 177 169 167 159 161 162 168 170 173 171 178 179 181 190 187 194 177 11 351 328 77 52 123 152 161 157 129 119 126 139 147 148 142 139 140
184 154 185 215 216 224 259 251 219 184 224 253 229 203 178 164 161 161 168 167 172 173 176 176 184 181 187 183 192 204 82 37 60 61 80 65 70 164 166 156 131 121 124 134 130 128 134 131 129
157 184 166 182 190 207 220 247 217 188 194 208 211 194 176 172 169 168 172 172 173 174 177 184 185 183 186 176 192 176 102 64 63 71 74 54 63 143 158 152 132 123 124 127 125 137 136 123 120
203 185 181 200 196 203 168 273 230 228 219 236 193 173 176 167 167 168 171 169 172 179 182 190 190 193 188 178 181 142 121 105 66 71 63 61 79 130 138 141 135 126 122 127 135 135 140 137 132